This is the latest recevied weather packets stored in our database for station/object DB0NLS-15. If no packets are shown the sender has not sent any weather packets the latest 10 day(s).
| Time | Temp. | Humidity | Pressure | Rain* | Wind** | Luminosity | Snow |
|---|---|---|---|---|---|---|---|
| 1777225550 | 12.22° C | 42% | 1012.3 hPa | 0 mm | - | - | - |
| 1777224948 | 12.22° C | 41% | 1012.2 hPa | 0 mm | - | - | - |
| 1777224345 | 12.78° C | 40% | 1012.2 hPa | 0 mm | - | - | - |
| 1777223742 | 12.78° C | 40% | 1012.2 hPa | 0 mm | - | - | - |
| 1777223139 | 13.33° C | 40% | 1012.2 hPa | 0 mm | - | - | - |
| 1777222537 | 13.33° C | 40% | 1012 hPa | 0 mm | - | - | - |
| 1777221934 | 13.89° C | 38% | 1012.2 hPa | 0 mm | - | - | - |
| 1777221331 | 13.33° C | 38% | 1012.2 hPa | 0 mm | - | - | - |
| 1777220729 | 13.89° C | 38% | 1012.1 hPa | 0 mm | - | - | - |
| 1777220126 | 14.44° C | 37% | 1012.1 hPa | 0 mm | - | - | - |
| 1777219524 | 13.89° C | 38% | 1012.1 hPa | 0 mm | - | - | - |
| 1777218921 | 13.89° C | 37% | 1012.2 hPa | 0 mm | - | - | - |
| 1777218318 | 13.89° C | 38% | 1012.2 hPa | 0 mm | - | - | - |
| 1777217716 | 13.89° C | 37% | 1012.3 hPa | 0 mm | - | - | - |
| 1777217173 | 13.89° C | 37% | 1012.3 hPa | 0 mm | - | - | - |
| 1777216571 | 13.89° C | 37% | 1012.4 hPa | 0 mm | - | - | - |
| 1777215963 | 13.89° C | 37% | 1012.4 hPa | 0 mm | - | - | - |
| 1777215360 | 13.33° C | 38% | 1012.3 hPa | 0 mm | - | - | - |
| 1777214758 | 13.89° C | 37% | 1012.5 hPa | 0 mm | - | - | - |
| 1777214149 | 13.89° C | 37% | 1012.3 hPa | 0 mm | - | - | - |
| 1777213547 | 13.89° C | 37% | 1012.5 hPa | 0 mm | - | - | - |
| 1777212939 | 13.89° C | 38% | 1012.5 hPa | 0 mm | - | - | - |
| 1777212336 | 13.33° C | 36% | 1012.5 hPa | 0 mm | - | - | - |
| 1777211734 | 13.33° C | 37% | 1012.6 hPa | 0 mm | - | - | - |
| 1777211125 | 13.33° C | 36% | 1012.5 hPa | 0 mm | - | - | - |
* Rain latest hour (hover to see other rain measurements)
** Current wind speed in m/s (hover to see current wind gust speed)